This is the latest recevied weather packets stored in our database for station/object SQ9PDE-13. If no packets are shown the sender has not sent any weather packets the latest 10 day(s).
| Time | Temp. | Humidity | Pressure | Rain* | Wind** | Luminosity | Snow |
|---|---|---|---|---|---|---|---|
| 1777985411 | 25.56° C | 29% | 1005.4 hPa | - | - | - | - |
| 1777985111 | 25.56° C | 29% | 1005.3 hPa | - | - | - | - |
| 1777984810 | 25.56° C | 30% | 1005.4 hPa | - | - | - | - |
| 1777984510 | 25.56° C | 30% | 1005.6 hPa | - | - | - | - |
| 1777984209 | 25.56° C | 29% | 1005.5 hPa | - | - | - | - |
| 1777983909 | 25.56° C | 29% | 1005.5 hPa | - | - | - | - |
| 1777983608 | 26.11° C | 28% | 1005.5 hPa | - | - | - | - |
| 1777983308 | 26.11° C | 27% | 1005.4 hPa | - | - | - | - |
| 1777983007 | 26.67° C | 27% | 1005.5 hPa | - | - | - | - |
| 1777982707 | 27.22° C | 26% | 1005.4 hPa | - | - | - | - |
| 1777982406 | 27.22° C | 28% | 1005.3 hPa | - | - | - | - |
| 1777982106 | 26.67° C | 27% | 1005.5 hPa | - | - | - | - |
| 1777981805 | 26.67° C | 27% | 1005.4 hPa | - | - | - | - |
| 1777981505 | 26.11° C | 26% | 1005.3 hPa | - | - | - | - |
| 1777981204 | 27.22° C | 28% | 1005.5 hPa | - | - | - | - |
| 1777980903 | 27.78° C | 29% | 1005.3 hPa | - | - | - | - |
| 1777980603 | 26.67° C | 29% | 1005.6 hPa | - | - | - | - |
| 1777980302 | 26.67° C | 29% | 1005.6 hPa | - | - | - | - |
| 1777980002 | 26.11° C | 30% | 1005.6 hPa | - | - | - | - |
| 1777979701 | 27.22° C | 31% | 1005.6 hPa | - | - | - | - |
| 1777979401 | 27.22° C | 31% | 1005.7 hPa | - | - | - | - |
| 1777979101 | 27.22° C | 31% | 1005.8 hPa | - | - | - | - |
| 1777978800 | 25° C | 32% | 1006.1 hPa | - | - | - | - |
| 1777978499 | 25° C | 32% | 1006.2 hPa | - | - | - | - |
| 1777978199 | 25.56° C | 31% | 1006.3 hPa | - | - | - | - |
* Rain since midnight (hover to see other rain measurements)
** Current wind speed in m/s (hover to see current wind gust speed)